Location: Feydey
(46.3431°N, 7.0106°E)
Time: 15:07:00
(UTC+00:00)

Cosmos 1464 Rocket - Pass Details

Date: 20 June 2021
Orbit: 953 x 1001 km, 82.9° (Epoch: 02 August)

Event Time Altitude Azimuth Distance (km) Brightness Sun altitude
Rises 22:22:04 0° 351° (N) 3,723 8.7 -18.4°
Reaches altitude 10° 22:24:36 10° 352° (N) 2,775 7.6 -18.5°
Maximum altitude 22:31:01 85° 82° (E) 1,011 4.0 -18.8°
Enters shadow 22:34:16 31° 169° (S) 1,663 4.6 -18.9°
